Change the Weather History Date:

Tuesday, February 18, 2014

  Actual Average (KGYR) Record (KGYR)
Temperature  
Mean Temperature 64 °F -  
Max Temperature 82 °F 67 °F 86 °F (2014)
Min Temperature 46 °F 44 °F 37 °F (2006)
Degree Days  
Heating Degree Days 1    
Growing Degree Days 14 (Base 50)    
Moisture  
Dew Point 30 °F    
Average Humidity 30    
Maximum Humidity 46    
Minimum Humidity 15    
Precipitation  
Precipitation 0.00 in - - ()
Sea Level Pressure  
Sea Level Pressure 29.93 in    
Wind  
Wind Speed 4 mph (North)    
Max Wind Speed 12 mph    
Max Gust Speed -    
Visibility 10 miles    
Events      
Averages and records for this station are not official NWS values.
T = Trace of Precipitation, MM = Missing Value Source: NWS Daily Summary

Daily Weather History Graph

Daily Weather History Graph

Search for Another Location

Airport or City:

Trip Planner

Search our weather history database for the weather conditions in past years. The results will help you decide how hot, cold, wet, or windy it might be!

Date:

Astronomy

Feb. 18, 2014 Rise Set
Actual Time 7:11 AM MST 6:18 PM MST
Civil Twilight 6:46 AM MST 6:43 PM MST
Nautical Twilight 6:17 AM MST 7:12 PM MST
Astronomical Twilight 5:48 AM MST 7:41 PM MST
Moon 10:01 PM MST (2/18) 8:58 AM MST (2/18)
Length of Visible Light 11h 57m
Length of Day
11h 06m
Waning Gibbous, 87% of the Moon is Illuminated
Feb 18
Waning Gibbous
Feb 22
Last Quarter
Mar 1
New
Mar 8
First Quarter
Mar 16
Full

Hourly Weather History & Observations

Time (MST) Temp. Windchill Dew Point Humidity Pressure Visibility Wind Dir Wind Speed Gust Speed Precip Events Conditions
12:15 AM 55.4 °F - 32.0 °F 41% 29.95 in 10.0 mi ENE 3.5 mph - N/A   Partly Cloudy
12:35 AM 55.4 °F - 28.4 °F 36% 29.94 in 10.0 mi East 4.6 mph - N/A   Clear
12:55 AM 55.4 °F - 26.6 °F 33% 29.94 in 10.0 mi North 3.5 mph - N/A   Clear
1:15 AM 53.6 °F - 26.6 °F 35% 29.94 in 10.0 mi North 3.5 mph - N/A   Clear
1:35 AM 53.6 °F - 26.6 °F 35% 29.94 in 10.0 mi NNE 4.6 mph - N/A   Clear
1:55 AM 53.6 °F - 26.6 °F 35% 29.94 in 10.0 mi NE 3.5 mph - N/A   Clear
2:15 AM 53.6 °F - 24.8 °F 33% 29.93 in 10.0 mi North 4.6 mph - N/A   Clear
2:35 AM 53.6 °F - 24.8 °F 33% 29.93 in 10.0 mi Calm Calm - N/A   Clear
2:55 AM 51.8 °F - 24.8 °F 35% 29.93 in 10.0 mi NNW 4.6 mph - N/A   Clear
3:15 AM 51.8 °F - 26.6 °F 38% 29.92 in 9.0 mi North 8.1 mph - N/A   Clear
3:35 AM 50.0 °F - 24.8 °F 37% 29.92 in 10.0 mi North 9.2 mph - N/A   Clear
3:55 AM 50.0 °F - 24.8 °F 37% 29.93 in 10.0 mi North 6.9 mph - N/A   Clear
4:15 AM 50.0 °F - 24.8 °F 37% 29.93 in 10.0 mi North 4.6 mph - N/A   Clear
4:35 AM 48.2 °F - 26.6 °F 43% 29.93 in 10.0 mi North 4.6 mph - N/A   Clear
4:55 AM 48.2 °F - 26.6 °F 43% 29.94 in 10.0 mi North 5.8 mph - N/A   Clear
5:15 AM 48.2 °F - 26.6 °F 43% 29.93 in 10.0 mi North 4.6 mph - N/A   Clear
5:35 AM 48.2 °F - 26.6 °F 43% 29.95 in 10.0 mi Calm Calm - N/A   Clear
5:55 AM 48.2 °F - 26.6 °F 43% 29.95 in 10.0 mi Calm Calm - N/A   Clear
6:15 AM 46.4 °F 43.5 °F 26.6 °F 46% 29.95 in 10.0 mi WNW 5.8 mph - N/A   Clear
6:35 AM 46.4 °F 42.9 °F 26.6 °F 46% 29.96 in 10.0 mi NNW 6.9 mph - N/A   Clear
6:55 AM 46.4 °F - 26.6 °F 46% 29.96 in 5.0 mi Calm Calm - N/A   Clear
7:15 AM 46.4 °F - 26.6 °F 46% 29.97 in 9.0 mi Calm Calm - N/A   Clear
7:35 AM 46.4 °F 44.3 °F 26.6 °F 46% 29.98 in 10.0 mi North 4.6 mph - N/A   Clear
7:55 AM 48.2 °F - 26.6 °F 43% 29.98 in 10.0 mi Calm Calm - N/A   Clear
8:15 AM 51.8 °F - 28.4 °F 41% 29.99 in 10.0 mi North 3.5 mph - N/A   Clear
8:35 AM 55.4 °F - 28.4 °F 36% 29.99 in 10.0 mi Calm Calm - N/A   Clear
8:55 AM 57.2 °F - 30.2 °F 36% 30.00 in 9.0 mi Calm Calm - N/A   Clear
9:15 AM 60.8 °F - 32.0 °F 34% 30.00 in 7.0 mi Calm Calm - N/A   Clear
9:35 AM 62.6 °F - 35.6 °F 37% 30.00 in 10.0 mi SSW 3.5 mph - N/A   Clear
9:55 AM 62.6 °F - 32.0 °F 32% 30.00 in 10.0 mi South 3.5 mph - N/A   Clear
10:15 AM 64.4 °F - 35.6 °F 34% 30.00 in 10.0 mi Calm Calm - N/A   Clear
10:35 AM 69.8 °F - 33.8 °F 27% 30.00 in 10.0 mi East 10.4 mph - N/A   Clear
10:55 AM 71.6 °F - 32.0 °F 23% 30.00 in 10.0 mi ESE 9.2 mph - N/A   Clear
11:15 AM 73.4 °F - 35.6 °F 25% 29.99 in 10.0 mi ESE 9.2 mph - N/A   Clear
11:35 AM 73.4 °F - 35.6 °F 25% 29.99 in 10.0 mi ESE 11.5 mph - N/A   Clear
11:55 AM 73.4 °F - 32.0 °F 22% 29.98 in 10.0 mi ESE 9.2 mph - N/A   Clear
12:15 PM 75.2 °F - 33.8 °F 22% 29.97 in 10.0 mi ESE 8.1 mph - N/A   Clear
12:35 PM 75.2 °F - 32.0 °F 21% 29.96 in 10.0 mi ESE 6.9 mph - N/A   Clear
12:55 PM 77.0 °F - 30.2 °F 18% 29.95 in 10.0 mi SE 4.6 mph - N/A   Clear
1:15 PM 77.0 °F - 32.0 °F 19% 29.94 in 10.0 mi SSE 3.5 mph - N/A   Clear
1:35 PM 77.0 °F - 32.0 °F 19% 29.93 in 10.0 mi South 3.5 mph - N/A   Clear
1:55 PM 77.0 °F - 32.0 °F 19% 29.92 in 10.0 mi South 3.5 mph - N/A   Clear
2:15 PM 80.6 °F - 32.0 °F 17% 29.92 in 10.0 mi SSW 3.5 mph - N/A   Clear
2:35 PM 80.6 °F - 32.0 °F 17% 29.91 in 10.0 mi South 3.5 mph - N/A   Clear
2:55 PM 80.6 °F - 32.0 °F 17% 29.90 in 10.0 mi South 3.5 mph - N/A   Clear
3:15 PM 80.6 °F - 30.2 °F 16% 29.90 in 10.0 mi Calm Calm - N/A   Clear
3:35 PM 80.6 °F - 32.0 °F 17% 29.89 in 10.0 mi Calm Calm - N/A   Clear
3:55 PM 80.6 °F - 32.0 °F 17% 29.89 in 10.0 mi South 3.5 mph - N/A   Clear
4:15 PM 80.6 °F - 30.2 °F 16% 29.89 in 10.0 mi Calm Calm - N/A   Clear
4:35 PM 80.6 °F - 32.0 °F 17% 29.88 in 10.0 mi Calm Calm - N/A   Clear
4:55 PM 82.4 °F - 30.2 °F 15% 29.88 in 10.0 mi West 4.6 mph - N/A   Clear
5:15 PM 80.6 °F - 32.0 °F 17% 29.89 in 10.0 mi WNW 4.6 mph - N/A   Clear
5:35 PM 78.8 °F - 32.0 °F 18% 29.88 in 10.0 mi NW 3.5 mph - N/A   Clear
5:55 PM 77.0 °F - 32.0 °F 19% 29.89 in 10.0 mi NW 4.6 mph - N/A   Clear
6:15 PM 75.2 °F - 32.0 °F 21% 29.89 in 7.0 mi NNW 6.9 mph - N/A   Clear
6:35 PM 73.4 °F - 32.0 °F 22% 29.89 in 9.0 mi NNW 5.8 mph - N/A   Clear
6:55 PM 73.4 °F - 32.0 °F 22% 29.89 in 5.0 mi NW 5.8 mph - N/A   Mostly Cloudy
7:15 PM 73.4 °F - 32.0 °F 22% 29.90 in 10.0 mi NW 6.9 mph - N/A   Overcast
7:35 PM 71.6 °F - 32.0 °F 23% 29.89 in 8.0 mi NNW 5.8 mph - N/A   Overcast
7:55 PM 69.8 °F - 32.0 °F 25% 29.90 in 7.0 mi NNW 6.9 mph - N/A   Overcast
8:15 PM 69.8 °F - 32.0 °F 25% 29.90 in 5.0 mi NNW 5.8 mph - N/A   Overcast
8:35 PM 68.0 °F - 32.0 °F 26% 29.90 in 7.0 mi NNW 6.9 mph - N/A   Overcast
8:55 PM 66.2 °F - 32.0 °F 28% 29.90 in 10.0 mi North 6.9 mph - N/A   Overcast
9:15 PM 66.2 °F - 32.0 °F 28% 29.90 in 10.0 mi NNE 5.8 mph - N/A   Mostly Cloudy
9:35 PM 64.4 °F - 32.0 °F 30% 29.90 in 10.0 mi Calm Calm - N/A   Mostly Cloudy
9:55 PM 64.4 °F - 33.8 °F 32% 29.90 in 10.0 mi Calm Calm - N/A   Partly Cloudy
10:55 PM 59.0 °F - 30.2 °F 34% 29.91 in 10.0 mi WNW 10.4 mph - N/A   Scattered Clouds
11:15 PM 59.0 °F - 32.0 °F 36% 29.91 in 10.0 mi NNW 9.2 mph - N/A   Mostly Cloudy
11:35 PM 60.8 °F - 32.0 °F 34% 29.90 in 10.0 mi North 6.9 mph - N/A   Overcast
11:55 PM 59.0 °F - 30.2 °F 34% 29.90 in 10.0 mi North 9.2 mph - N/A   Scattered Clouds